Meteo pe oră la Dabkowice

Astăzi, 10 Aprilie, Sâmbătă

Timp Temperatura Precipitaţii Vânt Presiune Umiditate
00:00 +3°C° 0.1 mm 5 m/s 758 mmHg 88%
01:00 +4°C° 0 mm 4 m/s 758 mmHg 88%
02:00 +4°C° 0 mm 4 m/s 758 mmHg 89%
03:00 +4°C° 0 mm 4 m/s 758 mmHg 91%
04:00 +3°C° 0 mm 4 m/s 759 mmHg 93%
05:00 +4°C° 0 mm 4 m/s 759 mmHg 90%
06:00 +4°C° 0 mm 4 m/s 760 mmHg 87%
07:00 +4°C° 0 mm 4 m/s 760 mmHg 83%
08:00 +4°C° 0 mm 3 m/s 760 mmHg 74%
09:00 +5°C° 0 mm 3 m/s 761 mmHg 65%
10:00 +5°C° 0 mm 3 m/s 761 mmHg 57%
11:00 +5°C° 0 mm 3 m/s 762 mmHg 55%
12:00 +7°C° 0 mm 3 m/s 762 mmHg 52%
13:00 +7°C° 0 mm 3 m/s 762 mmHg 50%
14:00 +7°C° 0 mm 3 m/s 762 mmHg 50%
15:00 +7°C° 0 mm 3 m/s 763 mmHg 50%
16:00 +5°C° 0 mm 3 m/s 763 mmHg 50%
17:00 +5°C° 0 mm 2 m/s 763 mmHg 55%
18:00 +4°C° 0 mm 2 m/s 763 mmHg 61%
19:00 +4°C° 0 mm 1 m/s 763 mmHg 66%
20:00 +4°C° 0 mm 1 m/s 763 mmHg 65%
21:00 +4°C° 0 mm 1 m/s 764 mmHg 64%
22:00 +4°C° 0 mm 1 m/s 764 mmHg 63%
23:00 +3°C° 0 mm 2 m/s 764 mmHg 65%

Mâine, 11 Aprilie, Duminică

Timp Temperatura Precipitaţii Vânt Presiune Umiditate
00:00 +3°C° 0 mm 2 m/s 763 mmHg 67%
01:00 +2°C° 0 mm 3 m/s 763 mmHg 68%
02:00 +2°C° 0 mm 3 m/s 763 mmHg 75%
03:00 +3°C° 0 mm 3 m/s 763 mmHg 82%
04:00 +3°C° 0 mm 4 m/s 762 mmHg 89%
05:00 +2°C° 0.6 mm 5 m/s 762 mmHg 90%
06:00 +3°C° 0.6 mm 5 m/s 761 mmHg 91%
07:00 +3°C° 0.6 mm 6 m/s 761 mmHg 92%
08:00 +5°C° 0.2 mm 6 m/s 760 mmHg 86%
09:00 +8°C° 0.2 mm 6 m/s 760 mmHg 80%
10:00 +10°C° 0.2 mm 7 m/s 759 mmHg 73%
11:00 +13°C° 0 mm 6 m/s 759 mmHg 65%
12:00 +14°C° 0 mm 6 m/s 759 mmHg 57%
13:00 +16°C° 0 mm 6 m/s 759 mmHg 49%
14:00 +16°C° 0 mm 5 m/s 759 mmHg 50%
15:00 +16°C° 0 mm 5 m/s 758 mmHg 51%
16:00 +17°C° 0 mm 4 m/s 758 mmHg 52%
17:00 +14°C° 0 mm 4 m/s 758 mmHg 58%
18:00 +13°C° 0 mm 4 m/s 758 mmHg 64%
19:00 +11°C° 0 mm 4 m/s 758 mmHg 71%
20:00 +11°C° 0 mm 4 m/s 758 mmHg 71%
21:00 +10°C° 0 mm 5 m/s 758 mmHg 72%
22:00 +10°C° 0 mm 6 m/s 758 mmHg 73%
23:00 +9°C° 0 mm 6 m/s 758 mmHg 75%

Poimâine, 12 Aprilie, Luni

Timp Temperatura Precipitaţii Vânt Presiune Umiditate
00:00 +9°C° 0 mm 6 m/s 758 mmHg 77%
01:00 +8°C° 0 mm 6 m/s 758 mmHg 79%
02:00 +8°C° 0 mm 6 m/s 758 mmHg 81%
03:00 +7°C° 0 mm 5 m/s 758 mmHg 84%
04:00 +7°C° 0 mm 5 m/s 759 mmHg 86%
05:00 +6°C° 0 mm 5 m/s 759 mmHg 88%
06:00 +6°C° 0 mm 5 m/s 760 mmHg 90%
07:00 +5°C° 0 mm 4 m/s 760 mmHg 92%
08:00 +5°C° 0.1 mm 5 m/s 761 mmHg 92%
09:00 +3°C° 0.1 mm 5 m/s 761 mmHg 91%
10:00 +3°C° 0.1 mm 6 m/s 762 mmHg 90%
11:00 +3°C° 0 mm 6 m/s 762 mmHg 86%
12:00 +3°C° 0 mm 6 m/s 763 mmHg 82%
13:00 +3°C° 0 mm 6 m/s 763 mmHg 77%
14:00 +3°C° 0 mm 6 m/s 764 mmHg 77%
15:00 +3°C° 0 mm 6 m/s 764 mmHg 77%
16:00 +3°C° 0 mm 6 m/s 764 mmHg 77%
17:00 +3°C° 0 mm 6 m/s 765 mmHg 76%
18:00 +3°C° 0 mm 6 m/s 765 mmHg 74%
19:00 +2°C° 0 mm 6 m/s 765 mmHg 73%
20:00 +2°C° 0 mm 5 m/s 765 mmHg 73%
21:00 +2°C° 0 mm 5 m/s 766 mmHg 73%
22:00 +2°C° 0 mm 5 m/s 766 mmHg 73%
23:00 +2°C° 0 mm 5 m/s 766 mmHg 72%

13 Aprilie, Marţi

Timp Temperatura Precipitaţii Vânt Presiune Umiditate
00:00 +2°C° 0 mm 5 m/s 766 mmHg 72%
01:00 +2°C° 0 mm 6 m/s 766 mmHg 71%
02:00 +2°C° 0 mm 6 m/s 766 mmHg 75%
03:00 +2°C° 0 mm 6 m/s 766 mmHg 78%
04:00 +1°C° 0 mm 6 m/s 766 mmHg 81%
05:00 +2°C° 0 mm 6 m/s 766 mmHg 81%
06:00 +2°C° 0 mm 6 m/s 766 mmHg 80%
07:00 +2°C° 0 mm 6 m/s 766 mmHg 79%
08:00 +2°C° 0 mm 6 m/s 767 mmHg 75%
09:00 +3°C° 0 mm 6 m/s 767 mmHg 71%
10:00 +3°C° 0 mm 6 m/s 767 mmHg 66%
11:00 +4°C° 0 mm 6 m/s 767 mmHg 65%
12:00 +4°C° 0 mm 6 m/s 767 mmHg 65%
13:00 +4°C° 0 mm 6 m/s 768 mmHg 64%
14:00 +5°C° 0 mm 5 m/s 767 mmHg 64%
15:00 +3°C° 0 mm 5 m/s 767 mmHg 64%
16:00 +3°C° 0 mm 5 m/s 767 mmHg 64%
17:00 +4°C° 0 mm 4 m/s 767 mmHg 66%
18:00 +3°C° 0 mm 3 m/s 768 mmHg 68%
19:00 +4°C° 0 mm 2 m/s 768 mmHg 70%
20:00 +2°C° 0 mm 3 m/s 768 mmHg 73%
21:00 +2°C° 0 mm 3 m/s 768 mmHg 77%
22:00 +2°C° 0 mm 3 m/s 768 mmHg 81%
23:00 +2°C° 0 mm 3 m/s 768 mmHg 83%

14 Aprilie, Miercuri

Timp Temperatura Precipitaţii Vânt Presiune Umiditate
00:00 +2°C° 0 mm 3 m/s 767 mmHg 84%
01:00 +2°C° 0 mm 3 m/s 767 mmHg 86%
02:00 +2°C° 0 mm 3 m/s 767 mmHg 86%
03:00 +3°C° 0 mm 2 m/s 767 mmHg 86%
04:00 +3°C° 0 mm 2 m/s 767 mmHg 86%
05:00 +3°C° 0 mm 2 m/s 767 mmHg 83%
06:00 +4°C° 0 mm 2 m/s 768 mmHg 80%
07:00 +5°C° 0 mm 1 m/s 768 mmHg 78%
08:00 +5°C° 0 mm 2 m/s 768 mmHg 72%
09:00 +5°C° 0 mm 3 m/s 768 mmHg 66%
10:00 +5°C° 0 mm 3 m/s 768 mmHg 60%
11:00 +6°C° 0 mm 4 m/s 768 mmHg 59%
12:00 +6°C° 0 mm 5 m/s 768 mmHg 59%
13:00 +6°C° 0 mm 5 m/s 768 mmHg 58%
14:00 +5°C° 0 mm 5 m/s 768 mmHg 59%
15:00 +5°C° 0 mm 5 m/s 768 mmHg 60%
16:00 +3°C° 0 mm 5 m/s 768 mmHg 61%
17:00 +3°C° 0 mm 5 m/s 769 mmHg 65%
18:00 +3°C° 0 mm 4 m/s 769 mmHg 68%
19:00 +1°C° 0 mm 4 m/s 769 mmHg 72%
20:00 +1°C° 0 mm 4 m/s 769 mmHg 72%
21:00 +1°C° 0 mm 4 m/s 769 mmHg 71%
22:00 0°C° 0 mm 4 m/s 769 mmHg 71%
23:00 +1°C° 0 mm 5 m/s 769 mmHg 71%

15 Aprilie, Joi

Timp Temperatura Precipitaţii Vânt Presiune Umiditate
00:00 +1°C° 0 mm 5 m/s 769 mmHg 71%
01:00 +1°C° 0 mm 6 m/s 769 mmHg 71%
02:00 +1°C° 0 mm 6 m/s 769 mmHg 72%
03:00 +1°C° 0 mm 6 m/s 769 mmHg 73%
04:00 +1°C° 0 mm 6 m/s 769 mmHg 73%
05:00 +1°C° 0 mm 6 m/s 769 mmHg 72%
06:00 +2°C° 0 mm 7 m/s 769 mmHg 71%
07:00 +2°C° 0 mm 7 m/s 770 mmHg 70%
08:00 +3°C° 0 mm 7 m/s 770 mmHg 68%
09:00 +3°C° 0 mm 7 m/s 770 mmHg 66%
10:00 +4°C° 0 mm 8 m/s 770 mmHg 64%
11:00 +4°C° 0 mm 8 m/s 770 mmHg 67%
12:00 +4°C° 0 mm 8 m/s 770 mmHg 69%
13:00 +4°C° 0 mm 8 m/s 770 mmHg 71%
14:00 +4°C° 0 mm 8 m/s 770 mmHg 71%
15:00 +4°C° 0 mm 8 m/s 770 mmHg 72%
16:00 +4°C° 0 mm 8 m/s 770 mmHg 73%
17:00 +4°C° 0 mm 8 m/s 770 mmHg 73%
18:00 +2°C° 0 mm 8 m/s 770 mmHg 74%
19:00 +2°C° 0 mm 8 m/s 770 mmHg 74%
20:00 +2°C° 0 mm 8 m/s 770 mmHg 75%
21:00 +1°C° 0 mm 8 m/s 771 mmHg 75%
22:00 +1°C° 0 mm 8 m/s 771 mmHg 76%
23:00 +1°C° 0 mm 8 m/s 771 mmHg 79%
Arată mai mult

Formular de consimțământ

Meteoprog și furnizorii noștri de servicii pot stoca și accesa date personale, precum cookies, identificatori de dispozitiv sau alte tehnologii similare pe dispozitivul dumneavoastră și procesa astfel de date pentru a personaliza conținutul și reclamele, dar și pentru a oferi caracteristici de social media și pentru a analiza traficul.

  • Stocarea și/sau accesarea informațiilor pe dispozitivul dumneavoastră

    Cookies, identificatori de dispozitiv sau alte informații pot fi stocate sau accesate pe dispozitiv în scopurile indicate mai sus.

  • Reclame și conținut personalizat, evaluarea reclamelor și a conținutului, informații despre audiențe și dezvoltarea produselor

    Reclamele și conținutul pot fi personalizate pe baza unui profil. Pot fi adăugate date suplimentare pentru a personaliza mai bine reclamele și conținutul. Performanța reclamelor și conținutului poate fi măsurată. Pot fi obținute informații despre utilizatorii care au văzut reclamele și conținutul. Aceste date pot fi utilizate pentru a dezvolta sau îmbunătăți experiența utilizatorilor, sistemele și software-ul.

Dând clic pe ‘Sunt de acord’, permiteți utilizarea cookie-urilor menționate, a identificatorilor de dispozitiv, balizelor web sau altor tehnologii similare. Setările pot fi modificate din browser-ul dispozitivului dumneavoastră.

În anumite scopuri, interesele legitime pot prima asupra consimțământului. Puteți citi mai multe informații în acest sens în Politica privind Confidențialitatea Datelor și Cookie.